Volver al catálogo

NOAA 16 DEB

ActivoPO
NORAD 41359·DEBRIS·🇺🇸 United States

Lanzado Sep 21, 2000 desde Vandenberg Space Force Base

Loading…

Próximos Pases (próximas 24 horas)

TLE

ActualizadoSource: Space-Track

Época: Sep 14, 2026, 08:34 UTC

1 41359U 00055JC  26257.35763096  .00005440  00000-0  11633-2 0  9992
2 41359  98.9405 100.4756 0020806 155.1817 205.0386 14.59105054553052

Sigue NOAA 16 DEB en tiempo real con AllMySat

Download on the App Store